THOR ABLESTAR DEB, 407

Orbit data source: Space-Track

THOR ABLESTAR DEB, 407 is space debris in LEO originally from a launch on Thu, 29 Jun 1961 UTC launched from the Air Force Eastern Test Range (AFETR). Debris objects in space refer to the collection of defunct objects orbiting the Earth. Examples of debris include non-operational satellites, rocket bodies, and fragments generated from explosions, collisions, or faulty payload assembly.

Loading next visibility...
THOR ABLESTAR DEB details
Identifier
407, 1961-015EG
Orbit
LEO
Last TLE update5 hours ago
Origin
Flag of USUSAF SSD (US)
ManufacturerUnknown
MissionSpacecraft
Bus & MotorUnknown
MassUnknown
Launch date (UTC)
1961-06-29 (64 years ago)
Launch vehicleUnknown
Launch site
Air Force Eastern Test Range (AFETR)
Object type
Payload
Rocket body
Debris
Shape & HBRUnknown
Radar Cross SectionMedium (>0.1 m² and <1 m²)

Expand to show TLE details & history

TLE from 5 hours ago
0 THOR ABLESTAR DEB
1   407U 61015EG  25047.83703780  .00071808  00000-0  63911-2 0  9994
2   407  66.3083  74.0139 0034840 257.6736 275.5916 14.95150775260274
Epoch: 2025-02-16T20:05Z
Definitive object data (Epoch: 2025-02-16T20:05:20.065Z)
Latitude6.46598°
Longitude162.78096°
Altitude581.157 km
Speed7.572 km/s
True Right ascension16h 44m 42s
True Declination6° 25' 36"
Sunlit
Object was in daylight at TLE epoch
Visualization TLE readout
Latitude-65.7567°
Longitude-90.74628°
Altitude582.882 km
Speed7.581 km/s
Apparent Right ascension18h 31m 01s
Apparent Declination-66° 33' 28"
Sunlit
Object is in daylight
Visualization observer readout
Local Sidereal Time04:10:22
Azimuth204.837° SW
Elevation-56.945°
Doppler factor1
Orbital elements
Apogee altitude604.521 km
Perigee altitude556.035 km
Semi-major axis6,958.415 km
Eccentricity0.003484
Inclination66.3083°
RAAN74.0139°
Arg. of periapsis257.6736°
True anomaly275.1941°
Mean anomaly275.5916°
Eccentric anomaly275.39287°
Mean motion3.73919 °/min
BSTAR0.0063911
Orbital period96.28 mins
Loading maneuver chart data...

THOR ABLESTAR DEB Visibility forecast

Observer location: undefined°, undefined

Span
Click to sort rows by Start time (UTC) header in descending order
Start Az.
Max El. time (UTC)
Max El. Az.
Max El.
End time (UTC)
End Az.
8 mins2025-02-17 03:28:43.220Z211.045° SW2025-02-17 03:32:43.220Z355.425° N44.503°2025-02-17 03:36:43.220Z28.321° NE
6 mins2025-02-17 11:54:43.220Z351.984° N2025-02-17 11:57:43.220Z59.632° ENE32.95°2025-02-17 12:00:43.220Z120.259° SE
4 mins2025-02-17 13:34:43.220Z277.284° WNW2025-02-17 13:35:43.220Z260.469° W17.509°2025-02-17 13:38:43.220Z211.965° SW
|